Location: ??
(35.4627°N, 139.3695°E)
Time: 05:58:51
(UTC+00:00)

CENTAUR R/B - Pass Details

Date: 25 November 2020
Orbit: 750 x 1438 km, 63.4° (Epoch: 11 January)

Event Time Altitude Azimuth Distance (km) Brightness Sun altitude
Exits shadow 19:36:21 15° 334° (NNW) 2,981 4.7 -22.5°
Maximum altitude 19:43:35 73° 57° (ENE) 1,468 3.4 -21.1°
Drops below altitude 10° 19:52:27 10° 142° (SE) 3,537 6.1 -19.3°
Sets 19:55:24 0° 144° (SE) 4,495 6.7 -18.7°
